D4355 Weather Reports


time (UTC)temp
C
wind
direction
speed
KPH
gust
KPH
rain 1hr
cm
rain 24hr
cm
rain mn
cm
humidity
%
barometer
mb
20260503180134 13 257 6.4 0.0 0.00 0.00 0.00 84 1011.3
20260503174556 13 248 6.4 12.9 0.00 0.00 0.00 82 1010.8
20260503174527 13 259 6.4 0.0 0.00 0.00 0.00 82 1011.2
20260503173104 13 242 4.8 11.3 0.00 0.00 0.00 83 1010.8
20260503173035 13 241 4.8 0.0 0.00 0.00 0.00 83 1011.2
20260503171557 13 248 4.8 11.3 0.00 0.00 0.00 83 1010.6
20260503171546 13 248 6.4 0.0 0.00 0.00 0.00 83 1011.1
20260503170113 13 205 8.0 14.5 0.00 0.00 0.00 82 1010.6
20260503160107 17 0 0.0 0.0 0.00 0.00 0.00 76 1010.4
20260503150137 16 34 6.4 0.0 0.00 0.00 0.00 81 1010.7
20260503130115 9 130 1.6 0.0 0.00 0.00 0.00 91 1010.5
20260503110141 8 128 0.0 0.0 0.00 0.00 0.00 91 1011.1
20260503100147 8 283 3.2 0.0 0.00 0.00 0.00 91 1011.3
20260503100104 8 283 3.2 6.4 0.00 0.00 0.00 91 1010.9
20260503081622 10 10 4.8 0.0 0.00 0.00 0.00 91 1012.2
20260503081600 10 0 3.2 12.9 0.00 0.00 0.00 91 1011.7
20260503080106 10 0 0.0 0.0 0.00 0.00 0.00 91 1011.8
20260503071614 10 25 4.8 8.0 0.00 0.00 0.00 91 1012.4
20260503071544 10 25 3.2 0.0 0.00 0.00 0.00 91 1012.7
20260503060148 10 355 0.0 0.0 0.00 0.00 0.00 91 1013.0
20260503054610 10 360 3.2 12.9 0.00 0.00 0.00 91 1012.7
20260503054532 10 360 4.8 0.0 0.00 0.00 0.00 91 1013.1
20260503053057 10 17 1.6 8.0 0.00 0.00 0.00 91 1012.7
20260503053040 10 17 1.6 0.0 0.00 0.00 0.00 91 1013.2
20260503051556 10 336 1.6 6.4 0.00 0.00 0.00 90 1012.7
20260503051554 10 336 1.6 0.0 0.00 0.00 0.00 91 1013.2
20260503050113 10 5 3.2 0.0 0.00 0.00 0.00 91 1013.1
20260503050058 10 0 1.6 6.4 0.00 0.00 0.00 90 1012.7
20260503044626 10 340 6.4 0.0 0.00 0.00 0.00 91 1013.0
20260503044556 10 338 4.8 9.7 0.00 0.00 0.00 90 1012.6
20260503043138 10 321 3.2 0.0 0.00 0.00 0.00 91 1013.1
20260503043101 10 321 4.8 8.0 0.00 0.00 0.00 90 1012.6
20260503041559 10 303 4.8 16.1 0.00 0.00 0.00 90 1012.5
20260503041515 10 303 6.4 0.0 0.00 0.00 0.00 90 1012.8
20260503040058 10 30 1.6 12.9 0.00 0.00 0.00 90 1012.1
20260503040021 10 18 4.8 0.0 0.00 0.00 0.00 90 1012.6
20260503034559 10 329 8.0 19.3 0.00 0.00 0.00 89 1012.3
20260503034536 10 306 8.0 0.0 0.00 0.00 0.00 89 1012.6
20260503033104 10 9 11.3 19.3 0.00 0.00 0.00 88 1012.2
20260503033054 10 335 11.3 0.0 0.00 0.00 0.00 89 1012.6
20260503031600 11 5 12.9 20.9 0.00 0.00 0.00 87 1012.1
20260503031555 11 5 11.3 0.0 0.00 0.00 0.00 87 1012.5
20260503030056 11 304 4.8 16.1 0.00 0.00 0.00 85 1012.3
20260503030042 11 303 6.4 0.0 0.00 0.00 0.00 86 1012.7
20260503024557 12 9 4.8 14.5 0.00 0.00 0.00 85 1012.5
20260503024550 12 9 6.4 0.0 0.00 0.00 0.00 85 1012.9
20260503023059 12 290 4.8 0.0 0.00 0.00 0.00 84 1012.9
20260503023056 12 24 4.8 14.5 0.00 0.00 0.00 84 1012.5
20260503021604 12 330 8.0 0.0 0.00 0.00 0.00 84 1012.9
20260503021600 12 360 6.4 19.3 0.00 0.00 0.00 83 1012.5
20260503020059 12 302 8.0 16.1 0.00 0.00 0.00 83 1012.3
20260503020010 12 316 6.4 0.0 0.00 0.00 0.00 83 1012.7
20260503014608 12 311 9.7 17.7 0.00 0.00 0.00 82 1012.2
20260503014528 12 348 8.0 0.0 0.00 0.00 0.00 83 1012.7
20260503013057 13 309 4.8 16.1 0.00 0.00 0.00 82 1012.3
20260503013038 13 270 6.4 0.0 0.00 0.00 0.00 83 1012.8
20260503011554 13 11 6.4 19.3 0.00 0.00 0.00 83 1012.3
20260503011551 13 16 6.4 0.0 0.00 0.00 0.00 83 1012.9
20260503010056 13 317 4.8 22.5 0.00 0.00 0.00 83 1012.4
20260503010036 13 313 8.0 0.0 0.00 0.00 0.00 84 1012.9
20260503004558 12 9 6.4 17.7 0.00 0.00 0.00 83 1012.5
20260503003124 12 301 6.4 0.0 0.00 0.00 0.00 84 1012.9
20260503003055 12 355 6.4 16.1 0.00 0.00 0.00 83 1012.4
20260503001555 12 13 6.4 19.3 0.00 0.00 0.00 85 1012.6
20260503001520 12 315 6.4 0.0 0.00 0.00 0.00 85 1013.0
20260503000056 12 342 4.8 17.7 0.00 0.00 0.00 84 1012.6
20260503000046 12 336 6.4 0.0 0.00 0.00 0.00 85 1013.2
20260502234630 12 286 6.4 0.0 0.00 0.00 0.00 84 1013.3
20260502234557 12 21 8.0 17.7 0.00 0.00 0.00 83 1012.9
20260502233058 12 248 6.4 17.7 0.00 0.00 0.00 82 1012.8
20260502233023 12 314 8.0 0.0 0.00 0.00 0.00 83 1013.4
20260502231628 12 12 8.0 25.7 0.00 0.00 0.00 82 1013.1
20260502231542 12 306 9.7 0.0 0.00 0.00 0.00 83 1013.6
20260502230124 13 315 9.7 0.0 0.00 0.00 0.00 81 1013.8
20260502230059 13 346 8.0 24.1 0.00 0.00 0.00 81 1013.3
20260502224556 13 308 8.0 20.9 0.00 0.00 0.00 82 1013.5
20260502224516 13 360 8.0 0.0 0.00 0.00 0.00 82 1013.9
20260502223057 12 355 9.7 29.0 0.00 0.00 0.00 83 1013.8
20260502223050 12 309 9.7 0.0 0.00 0.00 0.00 83 1014.2
20260502221606 12 17 12.9 0.0 0.00 0.00 0.00 83 1014.4
20260502221600 12 338 16.1 25.7 0.00 0.00 0.00 83 1013.9
20260502220118 12 44 8.0 0.0 0.00 0.00 0.00 84 1014.5
20260502220057 12 25 8.0 17.7 0.00 0.00 0.00 84 1014.1
20260502214638 12 13 8.0 0.0 0.00 0.00 0.00 83 1014.5
20260502214559 12 303 4.8 19.3 0.00 0.00 0.00 83 1014.0
20260502213055 12 360 8.0 20.9 0.00 0.00 0.00 83 1014.2
20260502213025 12 311 8.0 0.0 0.00 0.00 0.00 84 1014.6
20260502211557 12 301 9.7 22.5 0.00 0.00 0.00 84 1014.3
20260502211546 12 289 9.7 0.0 0.00 0.00 0.00 85 1014.7
20260502210135 12 288 14.5 0.0 0.00 0.00 0.00 85 1014.9
20260502210107 12 292 12.9 24.1 0.00 0.00 0.00 84 1014.4
20260502204557 12 267 14.5 24.1 0.00 0.00 0.00 83 1014.6
20260502204515 12 264 11.3 0.0 0.00 0.00 0.00 84 1015.0
20260502203055 12 325 4.8 22.5 0.00 0.00 0.00 85 1014.7
20260502203036 12 313 8.0 0.0 0.00 0.00 0.00 85 1015.1
20260502201601 11 360 6.4 0.0 0.00 0.00 0.00 86 1015.3
20260502201556 11 13 6.4 17.7 0.00 0.00 0.00 85 1014.9
20260502200055 11 355 6.4 16.1 0.00 0.00 0.00 86 1015.2
20260502200003 11 12 6.4 0.0 0.00 0.00 0.00 87 1015.6
20260502194600 11 315 8.0 17.7 0.00 0.00 0.00 85 1015.3
20260502194544 11 355 8.0 0.0 0.00 0.00 0.00 85 1015.6
20260502193058 11 298 4.8 16.1 0.00 0.00 0.00 84 1015.2
20260502193054 11 298 6.4 0.0 0.00 0.00 0.00 84 1015.7
20260502191604 11 322 9.7 0.0 0.00 0.00 0.00 85 1016.1
20260502190115 11 286 11.3 0.0 0.00 0.00 0.00 84 1016.1
20260502190057 11 302 12.9 20.9 0.00 0.00 0.00 83 1015.4
20260502184634 12 284 4.8 0.0 0.00 0.00 0.00 82 1016.2
20260502184602 12 286 4.8 16.1 0.00 0.00 0.00 81 1015.6
20260502183056 12 270 4.8 16.1 0.00 0.00 0.00 81 1015.8
20260502183034 12 10 6.4 0.0 0.00 0.00 0.00 82 1016.4
20260502181608 11 9 9.7 0.0 0.00 0.00 0.00 82 1016.5
20260502181555 11 19 8.0 19.3 0.00 0.00 0.00 82 1015.9